Dewpoint
58 52 49 50 53 50 42 40 24 33 30 25 22 24 17 21 25 24 23 23 23 26 25 26 26 27 22 23 20 22 27 25 24 22 25 38 51 57 59 61 63 66 66 67 70 70 70 70 71 72 72 72 72 72 72 72 72 72 71 71 71 71 70 70 70 70 70 70 69 69 69 69 69 69 68 68 69 70 70 71 70 70 70 70 70 70 70 71 70 70 69 69 67 67 66 66 65
54 52 51 53 48 39 35 37 31 30 24 18 19 21 18 23 22 22 22 24 24 25 29 25 25 28 29 27 24 26 24 25 26 25 32 52 57 57 58 62 66 66 66 68 70 70 70 70 71 71 72 72 72 72 72 72 72 72 71 71 71 71 70 70 70 70 70 70 70 70 69 69 69 69 69 69 69 69 70 70 70 70 70 70 70 70 70 70 70 69 68 68 66 66 65 64 64
56 54 53 48 44 41 41 38 27 28 19 15 15 18 20 20 20 21 23 23 23 26 27 26 26 29 27 26 24 21 21 25 31 47 49 55 49 50 59 63 66 66 66 68 69 70 70 70 70 71 72 72 72 72 72 72 72 71 71 71 71 71 70 70 70 70 70 70 70 70 70 70 69 69 69 69 69 69 69 69 69 69 69 70 70 70 69 69 69 67 67 67 66 65 64 63 63
58 55 52 45 38 43 36 33 33 25 19 18 18 17 20 22 21 24 23 23 25 26 27 26 25 28 26 24 24 23 22 24 32 48 48 51 49 50 60 64 65 66 66 68 69 70 70 70 70 71 72 72 72 72 72 72 72 71 71 71 70 70 70 70 70 70 70 70 69 70 70 70 70 69 69 69 68 68 68 69 69 69 69 70 69 69 69 68 67 67 66 66 65 64 63 62 62
52 56 53 45 40 35 32 29 26 26 18 21 14 17 26 23 22 23 22 25 27 26 26 27 26 26 27 26 27 21 19 27 27 42 48 52 55 57 60 64 66 66 66 68 69 69 70 69 70 70 72 72 72 72 72 72 72 71 71 71 70 70 70 70 69 70 70 69 69 70 70 70 70 69 69 69 68 68 68 68 69 69 69 69 69 68 68 67 66 65 65 65 64 63 62 61 60
52 50 50 42 32 39 34 22 22 25 23 24 16 15 18 19 22 23 24 25 27 29 26 26 23 24 24 26 27 23 26 24 29 47 52 50 58 60 60 64 66 66 66 68 68 69 69 69 70 70 72 72 72 72 72 72 71 70 71 70 70 70 70 69 69 70 69 69 69 70 70 70 69 69 69 68 68 68 68 69 69 69 69 69 68 67 66 66 65 65 64 64 64 62 61 60 58
46 46 45 40 37 36 28 23 21 25 21 22 20 16 19 20 22 23 22 24 26 27 28 25 27 23 22 25 25 25 28 32 37 39 52 52 59 60 60 65 65 66 66 67 68 69 69 69 70 71 72 71 71 72 72 72 71 70 70 70 70 70 69 70 69 69 69 69 69 70 70 70 70 70 69 68 68 68 69 69 69 69 69 68 67 66 65 65 64 64 62 62 63 61 59 58 57
50 37 39 32 32 32 25 24 25 27 18 19 19 20 17 22 24 23 22 22 21 24 26 28 28 21 21 25 23 23 37 51 50 55 55 59 59 60 59 65 65 65 66 67 68 68 68 68 70 71 71 72 71 72 72 72 71 70 70 70 70 70 69 69 69 69 69 69 69 70 69 70 70 70 69 68 68 68 68 68 68 68 67 67 66 65 64 62 62 62 61 61 61 60 58 57 56
45 38 42 36 28 32 30 27 26 30 26 22 20 29 31 22 24 22 23 25 25 26 27 26 27 21 21 24 25 27 33 47 54 57 57 57 59 60 58 63 65 65 66 66 67 68 68 68 69 71 71 71 71 72 72 71 71 70 70 70 70 70 69 69 69 70 70 70 70 70 70 70 70 70 69 69 69 68 68 68 68 68 67 66 65 64 62 61 60 60 60 60 61 59 57 57 56
40 36 29 31 33 26 27 22 16 17 20 21 21 21 22 23 22 24 23 22 23 25 24 27 26 23 23 23 24 26 31 49 53 56 57 58 59 59 58 58 65 65 65 66 67 67 68 67 68 69 70 71 71 71 72 71 71 71 71 70 70 70 70 70 70 70 70 70 70 70 70 70 70 70 69 69 69 68 68 68 68 67 66 65 65 64 62 61 60 60 61 61 60 58 57 55 55
38 39 39 29 27 23 23 21 24 26 21 25 23 22 22 24 23 22 22 22 20 17 18 25 23 24 23 23 25 30 45 48 52 51 56 57 58 59 58 57 59 65 65 65 66 67 68 68 66 68 69 69 70 71 71 71 71 71 71 71 70 70 70 70 70 70 71 70 71 71 70 71 70 70 69 69 68 68 68 68 68 67 66 66 65 64 63 61 60 59 60 60 60 58 56 55 54
33 35 35 28 24 24 26 21 25 26 28 25 19 21 21 22 23 19 18 15 17 17 24 27 24 25 21 22 25 32 40 45 49 49 51 54 58 58 58 57 57 62 64 65 65 67 67 68 68 67 68 68 69 70 70 70 71 71 71 71 71 71 70 70 70 71 71 71 71 71 70 71 70 70 69 69 68 68 68 67 67 67 66 66 65 64 62 60 59 59 60 60 59 57 56 55 53
36 37 32 26 24 24 25 23 26 34 28 21 20 18 20 19 19 19 18 16 18 17 21 24 23 22 21 24 27 33 37 40 45 48 50 54 57 56 57 59 59 61 63 64 65 66 66 67 68 68 68 66 67 67 68 69 69 70 70 71 70 70 70 70 71 71 71 71 71 71 71 70 70 70 69 69 68 68 67 67 66 66 65 65 64 64 63 60 59 59 61 60 59 57 56 55 53
36 36 30 21 29 25 23 22 23 20 19 21 21 23 20 17 19 20 18 19 19 17 19 25 23 22 20 20 20 28 33 39 47 50 52 52 54 56 57 58 59 59 62 65 65 66 66 67 68 68 68 68 68 67 66 67 69 70 70 70 70 70 70 70 70 70 70 70 70 70 69 69 69 70 69 69 68 68 67 67 66 65 64 64 64 63 61 59 59 61 62 60 58 57 55 54 52
33 39 33 28 26 24 26 22 22 22 18 21 20 20 19 22 21 22 19 22 19 19 24 26 27 18 13 18 17 28 31 38 48 50 53 55 56 56 57 57 59 59 60 63 65 65 66 66 67 67 67 68 69 69 68 68 66 68 69 69 69 69 69 69 70 69 69 69 69 68 67 67 66 67 67 68 67 67 66 66 66 65 63 63 62 62 60 59 60 63 61 60 58 57 55 52 51
37 38 32 26 22 20 22 25 27 23 19 23 22 21 20 20 22 21 21 20 23 28 23 20 25 18 18 19 19 20 26 43 48 54 55 55 55 56 56 58 58 58 59 61 63 64 65 66 66 67 68 68 69 69 69 68 66 65 67 67 68 68 68 69 68 68 66 66 66 66 64 65 64 65 63 65 64 66 65 63 64 65 63 62 61 60 60 60 60 62 61 60 58 57 55 52 49
42 36 24 27 14 25 26 22 24 19 22 24 24 21 18 19 21 23 26 24 21 21 26 22 22 25 21 20 24 38 44 48 52 53 54 53 54 55 55 56 56 57 59 59 61 63 64 65 66 67 67 68 69 69 69 69 68 64 65 65 65 66 67 67 67 65 63 63 63 62 62 67 65 65 65 66 61 64 61 61 63 64 64 64 63 63 60 60 61 62 61 60 58 56 53 50 49
36 26 27 22 27 26 30 24 22 24 20 20 21 20 19 20 21 21 22 22 23 22 21 21 23 23 23 24 34 45 47 49 50 50 51 51 52 52 53 54 55 58 59 59 59 61 64 65 65 66 67 68 68 69 69 69 69 66 68 67 66 66 65 64 65 66 64 65 61 64 66 66 65 64 65 63 63 61 60 59 61 63 64 63 63 63 60 60 60 62 60 60 58 56 53 43 44
31 31 23 20 28 28 31 25 24 20 21 22 23 21 22 23 23 23 20 20 20 20 20 22 22 23 24 23 23 30 47 48 49 47 49 50 51 53 54 54 56 56 57 58 59 61 63 64 64 65 66 67 68 68 69 69 69 68 68 69 68 65 65 64 66 65 65 65 64 65 64 64 64 64 64 62 61 59 59 58 60 62 63 62 62 63 62 60 60 61 59 58 58 54 44 41 40
35 28 26 30 33 30 29 25 23 21 23 24 24 25 25 24 24 24 22 21 22 21 20 20 20 19 21 24 22 32 45 46 48 47 46 47 49 49 50 52 54 56 58 59 60 61 61 63 64 65 65 66 67 68 68 68 69 69 69 69 68 68 67 66 66 65 65 65 65 65 65 64 63 64 61 58 59 59 58 57 59 60 61 60 60 61 61 62 62 60 59 59 55 46 40 39 37
32 30 27 29 31 26 25 26 25 24 25 25 25 26 22 23 24 23 23 21 21 21 22 21 20 20 21 23 26 26 42 43 45 47 45 45 46 48 47 47 50 53 56 56 56 60 61 62 63 64 65 65 66 67 67 68 68 68 68 68 68 68 67 67 67 66 66 66 66 65 64 63 62 62 61 60 59 58 58 58 59 59 59 56 57 55 56 56 58 56 56 52 44 42 39 36 34
33 28 30 32 30 26 25 27 25 27 27 25 26 23 22 25 25 25 23 21 21 20 20 23 22 22 22 22 23 25 27 34 38 42 43 43 42 42 45 47 47 49 51 54 56 58 60 62 62 64 64 64 65 66 67 67 67 67 68 68 68 67 67 67 67 67 67 66 65 64 63 62 61 61 60 59 58 58 57 57 58 58 56 56 55 55 53 54 54 53 52 49 44 42 39 39 37
26 27 28 29 29 26 27 24 23 23 23 25 25 25 26 25 24 25 25 23 23 24 23 23 22 23 23 23 24 22 24 26 25 27 29 33 35 37 38 39 41 42 50 52 53 56 59 61 62 62 63 64 64 65 65 65 66 67 67 67 67 67 67 67 67 67 67 66 65 64 63 62 61 60 59 59 58 57 57 57 57 56 56 55 54 54 53 53 53 52 51 49 44 41 41 40 39
29 25 28 27 28 26 26 26 25 23 25 23 25 25 23 25 21 25 23 22 24 24 24 24 23 23 23 22 22 23 24 23 26 26 27 27 29 29 34 35 35 35 42 48 52 55 56 59 61 61 62 63 64 64 64 65 65 65 66 66 66 66 66 67 67 67 66 66 64 64 62 61 60 59 59 59 58 57 57 57 56 56 55 55 53 54 53 51 51 51 50 47 45 41 39 38 39
29 28 28 28 25 26 26 23 21 22 22 22 26 21 20 22 22 24 22 22 23 24 24 22 23 23 22 21 20 21 26 29 28 29 32 34 34 35 36 35 36 36 36 37 46 53 56 57 59 61 61 62 63 64 64 64 63 64 65 66 66 64 66 67 67 66 66 65 64 63 62 61 60 59 59 58 58 57 57 56 55 55 55 54 53 53 53 52 50 50 50 48 46 43 38 37 38
26 27 24 23 22 22 22 21 21 21 21 22 20 19 20 20 26 23 21 21 22 23 21 20 19 18 18 20 26 30 31 32 33 32 32 35 34 33 34 35 34 33 34 36 40 51 54 57 58 60 61 61 62 62 63 63 62 62 64 65 66 64 66 66 65 66 66 65 63 63 62 61 60 59 58 58 57 56 55 54 54 54 54 54 54 54 51 52 51 48 48 48 47 43 38 37 37
24 22 22 21 21 21 21 21 20 21 21 21 19 19 19 21 22 18 20 21 23 21 21 20 19 19 19 28 30 31 31 32 32 33 33 33 34 34 34 35 35 35 36 36 36 38 48 55 58 59 60 59 60 62 62 62 61 62 62 64 64 64 65 65 65 65 65 65 63 62 61 61 60 59 58 57 56 56 55 54 54 53 53 53 53 53 52 52 50 50 49 48 47 43 39 36 35
23 21 21 21 21 22 21 20 20 20 19 21 20 19 21 20 23 18 18 19 21 20 19 19 20 18 25 30 30 32 31 31 32 32 32 32 33 34 34 34 35 36 36 36 38 39 44 53 57 58 59 59 60 61 60 61 61 61 61 62 62 63 62 63 63 64 64 64 63 62 61 60 59 59 58 57 56 55 55 54 54 53 54 53 53 53 51 51 51 49 47 46 45 42 38 35 35
25 22 20 20 21 20 20 20 21 21 19 20 20 18 17 21 18 19 19 21 20 20 19 19 19 19 28 31 31 30 30 31 31 32 32 32 33 34 34 34 35 36 37 38 38 41 43 46 52 55 57 57 59 60 60 61 60 60 59 60 61 61 61 61 62 62 62 62 61 61 60 60 59 59 57 57 55 55 55 54 53 53 54 53 53 51 50 49 48 45 43 42 40 38 35 34 34
22 21 20 19 20 19 20 22 21 20 19 20 19 17 18 19 18 19 20 20 20 19 18 18 19 22 29 30 30 30 30 31 31 32 32 32 33 33 34 34 36 36 37 38 39 39 43 49 52 54 55 56 57 58 58 58 59 58 58 58 59 59 60 60 60 61 61 61 61 60 60 59 58 58 57 56 56 55 54 54 54 53 53 52 52 51 51 48 47 44 43 39 40 37 35 33 33
19 20 20 20 19 20 22 22 22 19 21 20 20 18 18 18 19 20 20 21 19 18 18 18 21 27 29 30 30 29 30 30 31 31 32 33 32 33 34 34 34 35 37 38 38 39 40 43 48 52 52 52 54 55 56 57 56 56 56 57 58 59 59 60 59 59 59 60 60 60 59 59 58 58 57 57 55 55 54 54 53 53 52 52 53 51 51 47 46 44 40 39 36 34 33 33 32
20 20 22 27 19 21 22 23 22 19 19 19 18 21 17 18 18 19 20 20 19 18 18 20 27 28 29 29 29 29 29 30 31 31 32 32 32 32 33 33 33 35 36 37 38 39 39 41 44 47 51 53 52 52 52 54 54 54 55 55 57 56 57 58 57 58 58 58 59 59 58 58 59 58 57 56 56 55 54 54 54 52 51 52 52 50 49 46 43 42 38 38 35 33 32 30 32
28 21 24 24 21 20 21 23 22 21 19 18 18 17 17 18 19 19 20 20 19 18 18 25 28 29 29 28 29 28 29 29 31 31 32 32 33 32 32 33 32 34 35 36 38 39 39 40 42 44 48 52 53 54 54 54 54 55 55 55 55 55 55 55 55 56 57 57 56 57 57 57 57 56 56 56 56 55 54 53 53 52 51 52 51 49 48 46 42 41 36 35 35 33 31 29 30
23 25 20 26 21 22 21 24 23 24 18 16 17 16 16 17 18 18 18 20 20 19 22 28 29 29 29 28 28 28 28 29 29 30 31 32 32 32 32 34 33 32 34 36 37 38 38 39 41 42 45 49 52 53 53 54 54 55 55 55 54 55 54 55 55 55 55 55 55 56 55 55 55 55 55 55 55 54 53 53 51 51 51 51 50 47 47 42 41 40 37 34 32 31 30 28 29
23 24 23 23 25 23 22 23 23 23 23 20 20 17 16 16 17 17 18 20 20 20 26 28 28 28 28 28 28 27 28 28 28 30 31 32 32 32 32 32 32 32 33 34 36 37 38 38 39 40 41 45 49 51 52 53 53 54 54 54 54 54 54 54 54 54 54 55 54 54 54 54 54 55 55 54 54 53 53 52 51 50 50 50 48 46 43 39 38 37 38 33 32 31 30 28 28
24 25 26 27 24 24 22 23 24 24 22 22 22 22 22 22 21 20 20 21 21 24 28 28 28 28 28 27 28 27 27 27 29 30 31 31 32 32 32 32 32 32 32 33 35 35 36 37 38 38 39 41 46 47 48 50 50 51 52 52 52 51 52 52 52 52 53 53 53 54 54 54 55 54 54 53 53 52 52 51 51 50 49 48 48 45 41 38 38 36 36 34 30 29 28 29 30
25 27 26 24 25 24 25 25 25 23 21 20 21 20 20 19 20 20 20 21 22 26 28 29 29 28 28 27 27 26 27 28 31 30 30 31 31 31 32 32 32 32 31 32 33 34 35 36 37 37 38 39 41 45 45 46 47 47 48 48 47 49 49 50 50 50 50 51 51 52 52 53 54 53 52 52 52 50 50 49 49 48 47 47 47 46 43 40 39 37 36 34 31 28 27 29 30
22 24 24 22 26 22 24 24 25 24 23 22 20 19 20 20 21 21 22 23 25 25 28 28 28 28 28 27 27 27 27 30 29 28 28 29 30 31 31 31 32 31 31 31 32 33 34 35 35 36 37 38 39 40 44 44 45 44 46 45 46 46 47 47 47 47 48 48 48 49 49 50 50 50 50 51 51 51 49 49 48 48 47 47 46 46 44 41 39 36 34 32 31 29 27 28 31
25 22 23 24 24 27 26 26 24 20 23 21 20 20 21 22 22 23 26 29 30 30 29 28 28 28 28 27 26 26 26 26 26 26 27 27 30 30 30 30 30 31 31 31 31 32 33 33 34 35 35 37 38 39 40 41 42 43 44 44 44 43 44 44 45 44 46 46 46 47 47 48 48 47 47 47 48 48 48 47 45 46 45 45 45 43 43 40 37 35 33 33 30 31 29 32 30
26 25 24 24 26 24 24 25 24 24 21 21 22 21 22 22 23 27 29 30 30 30 30 30 29 27 26 26 26 26 26 26 26 26 26 26 27 28 29 29 29 30 30 30 31 31 32 33 33 33 34 35 36 37 39 39 40 39 39 39 39 39 39 40 42 43 44 44 44 44 45 45 45 45 45 45 45 46 46 46 44 43 42 42 44 43 41 40 39 36 33 32 32 29 26 27 30
28 27 26 25 26 25 24 23 26 25 24 25 22 23 23 23 23 23 27 29 29 29 29 28 29 30 30 30 29 29 26 26 26 26 26 26 26 26 28 28 29 28 29 29 30 31 31 31 32 32 33 33 34 35 37 38 38 38 38 37 37 37 37 37 37 37 40 42 43 43 43 43 44 43 43 43 43 43 43 44 44 42 42 41 42 43 42 41 41 38 35 33 30 31 29 27 29
27 29 27 25 25 24 25 26 24 23 23 26 24 21 23 25 26 23 25 25 27 28 27 27 28 28 28 26 27 27 29 28 27 26 26 26 26 26 26 27 28 28 28 29 29 30 30 31 31 31 32 33 33 34 35 36 36 36 36 36 35 35 35 35 35 36 35 36 38 38 38 40 41 43 42 42 42 42 42 41 41 42 41 40 40 41 41 40 39 38 35 33 32 30 31 28 26
25 25 29 26 26 26 26 25 25 20 20 24 26 20 21 25 23 24 23 24 26 27 28 27 28 27 28 28 28 27 27 26 26 26 26 25 25 25 25 26 27 27 28 29 29 28 29 29 29 30 30 31 33 32 33 34 34 34 34 35 35 34 34 34 35 35 35 35 35 35 35 35 36 38 40 40 40 40 40 40 40 40 40 40 39 38 38 37 38 37 36 35 34 33 30 29 26
25 28 30 29 28 27 27 26 25 24 25 26 25 24 21 21 24 25 23 24 25 26 27 27 27 26 27 26 27 27 27 27 26 26 25 25 25 25 25 25 26 27 27 27 28 28 28 28 28 28 28 29 30 31 31 33 32 32 32 33 33 33 33 33 33 33 34 34 33 34 34 34 34 34 35 36 36 36 38 39 39 39 39 38 38 37 37 37 38 38 38 35 34 32 30 28 27
27 29 28 27 26 26 26 24 24 24 22 21 24 24 20 20 23 25 22 21 23 25 26 27 27 27 27 27 28 28 28 27 26 26 26 25 25 25 25 25 26 26 26 26 27 27 27 27 27 27 27 27 27 29 30 30 32 31 31 31 31 32 32 32 32 32 32 32 31 32 32 32 33 33 33 33 33 34 35 36 38 38 38 37 36 37 37 37 36 36 35 35 33 33 31 30 28
29 30 30 30 28 27 26 24 23 22 20 19 22 24 18 21 25 24 24 22 21 24 26 27 27 27 27 27 28 28 28 28 27 27 26 26 26 25 25 25 24 25 26 27 25 26 26 25 25 25 26 26 27 26 27 28 29 30 29 29 29 29 30 29 29 30 30 30 30 30 31 31 31 31 32 32 32 33 33 34 35 36 37 37 36 35 35 36 37 36 36 34 34 33 33 31 29
31 29 26 26 27 26 25 24 22 19 15 21 23 24 22 19 22 24 24 25 22 24 26 27 27 28 28 28 28 28 27 28 27 26 26 25 25 25 25 24 24 24 25 25 24 24 24 24 22 22 23 24 24 25 25 26 26 27 28 28 28 28 28 28 27 28 28 28 28 29 29 30 30 30 30 30 31 32 32 33 34 34 35 36 36 36 36 36 36 35 35 34 33 33 33 32 31
27 24 23 24 24 23 22 18 21 15 18 19 22 24 23 17 19 22 22 26 23 25 25 26 27 27 28 28 28 28 28 27 27 26 25 25 24 24 24 24 24 24 24 24 24 24 24 22 20 19 20 21 21 21 22 23 24 25 25 25 25 26 26 26 25 25 26 26 26 26 27 26 27 28 28 28 29 30 31 31 32 33 33 34 34 35 35 35 35 35 34 34 33 33 32 32 31
25 23 23 19 17 18 13 16 15 15 18 21 23 24 22 21 22 23 26 27 27 25 26 26 26 27 27 27 28 28 27 26 26 26 25 25 25 25 24 24 23 23 24 24 24 24 24 22 20 18 18 18 18 18 18 19 21 21 23 23 23 24 24 24 24 24 25 24 24 23 24 24 24 24 25 25 27 28 29 30 31 31 32 33 33 33 34 34 35 35 35 34 33 33 32 31 31
22 22 21 18 14 13 11 11 9 12 18 21 22 23 20 22 22 27 27 27 28 27 27 27 27 27 27 27 27 27 26 26 26 26 25 25 25 25 25 24 24 23 23 24 24 24 23 23 23 22 22 20 17 16 15 16 17 19 20 21 22 21 21 22 23 23 23 24 24 22 22 23 23 24 24 25 26 26 27 28 29 29 30 31 32 32 33 33 34 34 33 33 33 33 32 31 30
22 24 23 23 17 11 11 8 11 14 17 17 22 15 15 15 17 27 27 27 27 28 28 28 28 27 27 27 27 26 25 24 25 25 25 25 26 26 26 25 24 23 23 23 22 22 22 22 22 23 23 24 22 19 16 16 16 17 18 19 20 21 21 20 22 24 23 22 22 21 21 22 22 23 23 24 25 25 25 25 26 26 28 29 30 30 31 31 32 32 32 32 32 33 32 31 30
24 26 25 20 21 22 15 15 11 10 14 15 16 18 20 20 26 26 26 26 26 27 27 27 26 26 26 25 25 25 25 25 24 24 24 25 25 25 25 25 24 23 22 22 22 22 21 21 20 21 22 23 24 24 21 18 17 17 18 18 19 21 22 20 21 22 22 23 22 22 20 21 22 23 23 23 23 24 24 24 23 24 25 26 27 28 29 29 30 30 31 31 31 32 31 31 31
25 25 20 25 27 24 16 18 20 16 14 20 13 22 24 24 25 25 26 25 25 25 25 25 25 25 24 24 25 25 25 25 25 25 24 24 24 25 25 24 23 23 22 21 22 22 21 21 20 20 20 21 22 23 24 23 20 18 18 18 18 19 20 20 20 21 22 22 23 23 22 22 22 23 24 24 23 23 24 24 23 23 23 24 24 25 26 27 28 29 29 30 30 30 30 31 31
25 21 24 27 29 27 22 16 12 13 15 15 17 16 17 16 16 23 24 24 24 24 24 24 24 24 23 24 24 25 25 25 25 25 25 25 25 25 25 25 24 23 22 22 22 23 23 24 21 20 20 20 21 21 21 23 23 21 20 19 18 19 18 19 20 18 19 18 19 20 21 21 20 21 22 23 23 22 23 24 23 23 23 24 24 24 24 25 26 27 28 28 29 30 30 30 30
27 26 29 25 21 20 24 18 14 14 13 12 15 19 19 19 18 22 23 24 24 24 24 24 23 23 22 23 24 24 25 25 24 24 24 25 25 26 26 25 26 25 25 23 24 23 23 22 22 21 20 20 21 22 20 20 21 23 23 22 20 19 20 19 20 18 18 19 18 20 20 22 22 20 20 21 20 20 21 21 22 21 22 22 23 23 24 23 25 24 24 26 27 28 29 29 30
30 29 27 30 25 23 18 21 18 16 13 13 12 16 17 21 21 23 22 24 24 24 23 23 23 23 22 23 24 24 24 24 24 24 25 25 25 25 26 26 26 26 26 25 24 23 20 21 20 20 20 19 19 20 20 19 20 19 19 20 21 21 21 20 20 20 17 20 20 21 20 21 23 21 21 21 20 20 21 21 20 20 20 20 20 21 22 23 24 24 24 24 24 26 27 27 28
24 25 25 26 24 27 26 23 21 20 17 17 17 15 19 22 25 24 23 23 24 24 24 24 23 23 23 23 24 23 23 24 24 24 25 25 25 25 26 26 26 26 26 26 22 19 20 20 19 19 17 17 18 20 20 20 19 17 18 16 18 19 17 20 17 20 18 18 21 22 20 22 23 20 22 21 20 20 21 21 21 21 20 19 19 19 19 21 21 21 22 23 24 24 24 25 26
27 26 25 26 24 22 22 23 26 21 22 19 18 18 18 26 27 26 25 23 24 25 24 24 24 23 23 23 23 23 24 23 24 24 24 24 24 25 27 28 27 26 25 24 24 22 19 17 19 20 20 18 17 17 18 19 19 17 17 17 17 18 18 18 16 17 19 18 19 20 20 21 20 21 21 21 20 20 21 21 21 21 20 20 19 19 18 18 18 18 19 22 23 23 23 23 24